Weather History for Seattle Boeing, WA

Change the Weather History Date:

Tuesday, November 12, 2013

  Actual Average Record
Temperature  
Mean Temperature 54 °F -  
Max Temperature 60 °F 51 °F 60 °F (1953)
Min Temperature 48 °F 41 °F 13 °F (1955)
Degree Days  
Heating Degree Days 11    
Growing Degree Days 4 (Base 50)    
Moisture  
Dew Point 47 °F    
Average Humidity 78    
Maximum Humidity 86    
Minimum Humidity 67    
Precipitation  
Precipitation 0.14 in - - ()
Sea Level Pressure  
Sea Level Pressure 30.23 in    
Wind  
Wind Speed 6 mph (SSE)    
Max Wind Speed 10 mph    
Max Gust Speed 17 mph    
Visibility 10 miles    
Events Rain    
Averages and records for this station are not official NWS values.
T = Trace of Precipitation, MM = Missing Value Source: NWS Daily Summary

Daily Weather History Graph

Daily Weather History Graph

Search for Another Location

Airport:

Trip Planner

Search our weather history database for the weather conditions in past years. The results will help you decide how hot, cold, wet, or windy it might be!

Date:

Astronomy

Nov. 12, 2013 Rise Set
Actual Time 7:10 AM PST 4:36 PM PST
Civil Twilight 6:36 AM PST 5:09 PM PST
Nautical Twilight 5:59 AM PST 5:46 PM PST
Astronomical Twilight 5:23 AM PST 6:22 PM PST
Moon 2:11 PM PST (11/12) 1:45 AM PST (11/12)
Length of Visible Light 10h 32m
Length of Day
9h 25m
Waxing Gibbous, 77% of the Moon is Illuminated
Nov 12
Waxing Gibbous
Nov 17
Full
Nov 25
Last Quarter
Dec 2
New
Dec 9
First Quarter

Hourly Weather History & Observations

Time (PST) Temp. Dew Point Humidity Pressure Visibility Wind Dir Wind Speed Gust Speed Precip Events Conditions
12:53 AM 48.0 °F 43.0 °F 83% 30.04 in 10.0 mi SSE 6.9 mph - N/A   Clear
1:53 AM 48.9 °F 44.1 °F 83% 30.05 in 10.0 mi SE 10.4 mph - N/A   Clear
2:53 AM 48.9 °F 43.0 °F 80% 30.08 in 10.0 mi SE 4.6 mph - N/A   Clear
3:53 AM 52.0 °F 43.0 °F 71% 30.09 in 10.0 mi SE 5.8 mph - N/A   Overcast
4:53 AM 52.0 °F 44.1 °F 74% 30.11 in 10.0 mi ESE 3.5 mph - 0.01 in Rain Light Rain
5:53 AM 50.0 °F 46.0 °F 86% 30.13 in 8.0 mi SE 3.5 mph - 0.05 in Rain Light Rain
6:53 AM 51.1 °F 46.9 °F 86% 30.14 in 10.0 mi ESE 3.5 mph - 0.05 in Rain Light Rain
7:53 AM 51.1 °F 46.9 °F 86% 30.17 in 10.0 mi Calm Calm - 0.01 in Rain Light Rain
8:53 AM 52.0 °F 46.9 °F 83% 30.21 in 10.0 mi Calm Calm - 0.02 in   Mostly Cloudy
9:53 AM 52.0 °F 46.9 °F 83% 30.23 in 10.0 mi Calm Calm - N/A   Overcast
10:53 AM 53.1 °F 46.9 °F 80% 30.26 in 10.0 mi SE 3.5 mph - N/A   Overcast
11:53 AM 54.0 °F 48.9 °F 83% 30.27 in 10.0 mi ESE 4.6 mph - N/A   Overcast
12:53 PM 57.9 °F 51.1 °F 78% 30.27 in 10.0 mi SSE 4.6 mph - N/A   Mostly Cloudy
1:53 PM 60.1 °F 51.1 °F 72% 30.28 in 10.0 mi SSW 5.8 mph - N/A   Mostly Cloudy
2:53 PM 60.1 °F 48.9 °F 67% 30.28 in 10.0 mi South 9.2 mph 17.3 mph N/A   Mostly Cloudy
3:53 PM 60.1 °F 50.0 °F 69% 30.29 in 10.0 mi SSE 5.8 mph - N/A   Mostly Cloudy
4:53 PM 59.0 °F 48.9 °F 69% 30.30 in 10.0 mi SSW 6.9 mph - N/A   Overcast
5:53 PM 59.0 °F 48.9 °F 69% 30.31 in 10.0 mi South 5.8 mph - N/A   Mostly Cloudy
6:53 PM 57.9 °F 48.9 °F 72% 30.32 in 10.0 mi South 9.2 mph - N/A   Overcast
7:53 PM 57.0 °F 48.9 °F 74% 30.33 in 10.0 mi South 9.2 mph - N/A   Scattered Clouds
8:53 PM 55.9 °F 48.9 °F 77% 30.35 in 10.0 mi SSW 6.9 mph - N/A   Mostly Cloudy
9:53 PM 55.9 °F 48.9 °F 77% 30.36 in 10.0 mi South 5.8 mph - N/A   Mostly Cloudy
10:53 PM 55.9 °F 48.9 °F 77% 30.38 in 10.0 mi South 4.6 mph - N/A   Mostly Cloudy
11:53 PM 53.1 °F 48.0 °F 83% 30.38 in 10.0 mi SSE 5.8 mph - N/A   Scattered Clouds